• In Hungary
  • List of Countries
  • For 7 days
  • Water Temperature
  • Satellite Maps
  • Weather Map
  • News
  • Weather Widgets
  • user-avatar
    Login

    Hourly Weather Niwki

    Today, 21 October, Saturday

    Time Temperature Precipitation Wind Pressure Humidity
    00:00 +12°C° 0.2 mm 3 mps 750 mmHg 90%
    01:00 +12°C° 0 mm 2 mps 749 mmHg 92%
    02:00 +12°C° 0.7 mm 2 mps 749 mmHg 93%
    03:00 +12°C° 0.7 mm 2 mps 749 mmHg 93%
    04:00 +12°C° 0.7 mm 2 mps 749 mmHg 94%
    05:00 +12°C° 0.1 mm 2 mps 749 mmHg 94%
    06:00 +10°C° 0.1 mm 2 mps 749 mmHg 95%
    07:00 +10°C° 0 mm 2 mps 749 mmHg 96%
    08:00 +10°C° 0.1 mm 2 mps 749 mmHg 94%
    09:00 +12°C° 0.1 mm 2 mps 749 mmHg 92%
    10:00 +12°C° 0.1 mm 2 mps 749 mmHg 90%
    11:00 +13°C° 0.1 mm 2 mps 749 mmHg 88%
    12:00 +13°C° 0.1 mm 2 mps 750 mmHg 86%
    13:00 +13°C° 0 mm 2 mps 750 mmHg 85%
    14:00 +13°C° 0 mm 2 mps 750 mmHg 86%
    15:00 +13°C° 0 mm 1 mps 750 mmHg 86%
    16:00 +13°C° 0 mm 1 mps 750 mmHg 87%
    17:00 +13°C° 0 mm 1 mps 750 mmHg 89%
    18:00 +12°C° 0 mm 1 mps 750 mmHg 91%
    19:00 +12°C° 0 mm 1 mps 751 mmHg 93%
    20:00 +12°C° 0 mm 1 mps 751 mmHg 93%
    21:00 +11°C° 0 mm 1 mps 751 mmHg 93%
    22:00 +11°C° 0 mm 1 mps 751 mmHg 94%
    23:00 +11°C° 0 mm 1 mps 751 mmHg 94%

    Tomorrow, 22 October, Sunday

    Time Temperature Precipitation Wind Pressure Humidity
    00:00 +10°C° 0 mm 2 mps 751 mmHg 94%
    01:00 +10°C° 0 mm 2 mps 751 mmHg 94%
    02:00 +10°C° 0 mm 2 mps 751 mmHg 94%
    03:00 +10°C° 0 mm 2 mps 750 mmHg 95%
    04:00 +9°C° 0 mm 3 mps 750 mmHg 95%
    05:00 +9°C° 0 mm 3 mps 750 mmHg 95%
    06:00 +9°C° 0 mm 3 mps 750 mmHg 94%
    07:00 +9°C° 0 mm 3 mps 750 mmHg 94%
    08:00 +10°C° 0 mm 3 mps 750 mmHg 92%
    09:00 +10°C° 0 mm 4 mps 749 mmHg 89%
    10:00 +11°C° 0 mm 4 mps 749 mmHg 87%
    11:00 +10°C° 0.5 mm 4 mps 749 mmHg 87%
    12:00 +10°C° 0.5 mm 3 mps 749 mmHg 88%
    13:00 +10°C° 0.5 mm 3 mps 749 mmHg 88%
    14:00 +10°C° 1 mm 3 mps 749 mmHg 89%
    15:00 +10°C° 1 mm 3 mps 749 mmHg 90%
    16:00 +10°C° 1 mm 2 mps 748 mmHg 91%
    17:00 +9°C° 0.5 mm 2 mps 748 mmHg 92%
    18:00 +9°C° 0.5 mm 2 mps 749 mmHg 92%
    19:00 +9°C° 0.5 mm 2 mps 749 mmHg 93%
    20:00 +9°C° 0.2 mm 2 mps 749 mmHg 94%
    21:00 +10°C° 0.2 mm 1 mps 749 mmHg 94%
    22:00 +10°C° 0.2 mm 1 mps 749 mmHg 95%
    23:00 +10°C° 0 mm 1 mps 749 mmHg 95%

    Day after tomorrow, 23 October, Monday

    Time Temperature Precipitation Wind Pressure Humidity
    00:00 +10°C° 0 mm 1 mps 749 mmHg 95%
    01:00 +9°C° 0 mm 1 mps 749 mmHg 95%
    02:00 +9°C° 0 mm 1 mps 749 mmHg 95%
    03:00 +9°C° 0 mm 1 mps 749 mmHg 95%
    04:00 +9°C° 0 mm 1 mps 749 mmHg 95%
    05:00 +9°C° 0 mm 1 mps 749 mmHg 95%
    06:00 +8°C° 0 mm 1 mps 749 mmHg 95%
    07:00 +8°C° 0 mm 1 mps 749 mmHg 95%
    08:00 +9°C° 0 mm 1 mps 749 mmHg 91%
    09:00 +10°C° 0 mm 1 mps 750 mmHg 87%
    10:00 +11°C° 0 mm 1 mps 750 mmHg 83%
    11:00 +11°C° 0 mm 1 mps 750 mmHg 80%
    12:00 +12°C° 0 mm 1 mps 750 mmHg 78%
    13:00 +12°C° 0 mm 1 mps 750 mmHg 75%
    14:00 +12°C° 0 mm 1 mps 751 mmHg 78%
    15:00 +12°C° 0 mm 1 mps 751 mmHg 80%
    16:00 +11°C° 0 mm 1 mps 751 mmHg 82%
    17:00 +11°C° 0 mm 1 mps 751 mmHg 84%
    18:00 +10°C° 0 mm 1 mps 752 mmHg 87%
    19:00 +10°C° 0 mm 1 mps 752 mmHg 90%
    20:00 +10°C° 0 mm 1 mps 753 mmHg 90%
    21:00 +9°C° 0 mm 1 mps 753 mmHg 91%
    22:00 +9°C° 0 mm 1 mps 753 mmHg 92%
    23:00 +9°C° 0 mm 1 mps 754 mmHg 92%

    24 October, Tuesday

    Time Temperature Precipitation Wind Pressure Humidity
    00:00 +9°C° 0 mm 1 mps 754 mmHg 92%
    01:00 +9°C° 0 mm 1 mps 754 mmHg 92%
    02:00 +9°C° 0 mm 1 mps 754 mmHg 92%
    03:00 +8°C° 0 mm 1 mps 755 mmHg 92%
    04:00 +8°C° 0 mm 1 mps 755 mmHg 92%
    05:00 +8°C° 0 mm 1 mps 755 mmHg 92%
    06:00 +8°C° 0 mm 1 mps 756 mmHg 92%
    07:00 +7°C° 0 mm 2 mps 756 mmHg 92%
    08:00 +7°C° 0 mm 2 mps 756 mmHg 89%
    09:00 +8°C° 0 mm 2 mps 757 mmHg 86%
    10:00 +8°C° 0 mm 2 mps 757 mmHg 83%
    11:00 +9°C° 0 mm 2 mps 757 mmHg 81%
    12:00 +9°C° 0 mm 2 mps 758 mmHg 79%
    13:00 +10°C° 0 mm 2 mps 758 mmHg 76%
    14:00 +9°C° 0 mm 2 mps 758 mmHg 77%
    15:00 +9°C° 0 mm 2 mps 758 mmHg 78%
    16:00 +10°C° 0 mm 1 mps 758 mmHg 79%
    17:00 +8°C° 0 mm 2 mps 758 mmHg 82%
    18:00 +8°C° 0 mm 2 mps 759 mmHg 84%
    19:00 +7°C° 0 mm 2 mps 759 mmHg 86%
    20:00 +7°C° 0 mm 2 mps 759 mmHg 86%
    21:00 +7°C° 0 mm 2 mps 759 mmHg 86%
    22:00 +7°C° 0 mm 2 mps 759 mmHg 86%
    23:00 +7°C° 0 mm 3 mps 759 mmHg 86%

    25 October, Wednesday

    Time Temperature Precipitation Wind Pressure Humidity
    00:00 +7°C° 0 mm 3 mps 759 mmHg 85%
    01:00 +7°C° 0 mm 3 mps 759 mmHg 84%
    02:00 +7°C° 0 mm 3 mps 759 mmHg 84%
    03:00 +6°C° 0 mm 4 mps 758 mmHg 84%
    04:00 +6°C° 0 mm 4 mps 758 mmHg 83%
    05:00 +6°C° 0.3 mm 4 mps 758 mmHg 84%
    06:00 +6°C° 0.3 mm 5 mps 757 mmHg 85%
    07:00 +6°C° 0.3 mm 5 mps 757 mmHg 85%
    08:00 +6°C° 2.3 mm 5 mps 757 mmHg 86%
    09:00 +5°C° 2.3 mm 6 mps 757 mmHg 87%
    10:00 +5°C° 2.3 mm 6 mps 757 mmHg 88%
    11:00 +7°C° 1.4 mm 6 mps 756 mmHg 88%
    12:00 +7°C° 1.4 mm 6 mps 756 mmHg 88%
    13:00 +7°C° 1.4 mm 6 mps 755 mmHg 89%
    14:00 +8°C° 0.4 mm 6 mps 755 mmHg 89%
    15:00 +8°C° 0.4 mm 6 mps 755 mmHg 90%
    16:00 +9°C° 0.4 mm 6 mps 754 mmHg 91%
    17:00 +9°C° 0.2 mm 5 mps 754 mmHg 92%
    18:00 +10°C° 0.2 mm 5 mps 754 mmHg 92%
    19:00 +12°C° 0.2 mm 5 mps 753 mmHg 93%
    20:00 +12°C° 0.2 mm 5 mps 753 mmHg 93%
    21:00 +12°C° 0.2 mm 5 mps 753 mmHg 92%
    22:00 +13°C° 0.2 mm 5 mps 753 mmHg 92%
    23:00 +13°C° 0.2 mm 5 mps 753 mmHg 92%

    26 October, Thursday

    Time Temperature Precipitation Wind Pressure Humidity
    00:00 +13°C° 0.2 mm 5 mps 753 mmHg 91%
    01:00 +13°C° 0.2 mm 5 mps 753 mmHg 91%
    02:00 +13°C° 0 mm 5 mps 753 mmHg 91%
    03:00 +13°C° 0 mm 5 mps 753 mmHg 91%
    04:00 +13°C° 0 mm 5 mps 753 mmHg 91%
    05:00 +12°C° 0 mm 5 mps 753 mmHg 91%
    06:00 +12°C° 0 mm 4 mps 753 mmHg 91%
    07:00 +12°C° 0 mm 4 mps 753 mmHg 91%
    08:00 +12°C° 0 mm 5 mps 754 mmHg 88%
    09:00 +13°C° 0 mm 5 mps 754 mmHg 84%
    10:00 +13°C° 0 mm 5 mps 754 mmHg 80%
    11:00 +13°C° 0 mm 5 mps 754 mmHg 78%
    12:00 +13°C° 0 mm 5 mps 754 mmHg 76%
    13:00 +13°C° 0 mm 5 mps 754 mmHg 74%
    14:00 +13°C° 0 mm 5 mps 754 mmHg 76%
    15:00 +13°C° 0 mm 4 mps 753 mmHg 77%
    16:00 +12°C° 0 mm 4 mps 753 mmHg 79%
    17:00 +12°C° 0 mm 4 mps 753 mmHg 82%
    18:00 +11°C° 0 mm 3 mps 753 mmHg 86%
    19:00 +11°C° 0 mm 3 mps 752 mmHg 89%
    20:00 +11°C° 0 mm 3 mps 752 mmHg 90%
    21:00 +11°C° 0 mm 3 mps 752 mmHg 91%
    22:00 +11°C° 0 mm 3 mps 751 mmHg 92%
    23:00 +11°C° 0 mm 3 mps 751 mmHg 91%
    Show more